| time (UTC) | temp C | wind direction | speed KPH | gust KPH | rain 1hr cm | rain 24hr cm | rain mn cm | humidity % | barometer mb |
| 20260507030008 | 13 | 217 | 0.0 | 0.0 | 0.00 | 0.10 | 0.10 | 97 | 1005.4 |
| 20260507024605 | 12 | 232 | 0.0 | 0.0 | 0.00 | 0.10 | 0.10 | 97 | 1005.3 |
| 20260507023011 | 12 | 214 | 0.0 | 0.0 | 0.00 | 0.10 | 0.10 | 97 | 1005.5 |
| 20260507021609 | 13 | 222 | 0.0 | 0.0 | 0.00 | 0.10 | 0.10 | 97 | 1005.2 |
| 20260507020015 | 13 | 247 | 0.0 | 0.0 | 0.00 | 0.10 | 0.10 | 97 | 1005.5 |
| 20260507014507 | 13 | 243 | 0.0 | 0.0 | 0.00 | 0.10 | 0.10 | 97 | 1005.7 |
| 20260507013116 | 13 | 211 | 0.0 | 0.0 | 0.00 | 0.10 | 0.10 | 97 | 1005.9 |
| 20260507011523 | 13 | 271 | 0.0 | 0.0 | 0.03 | 0.10 | 0.10 | 97 | 1005.9 |
| 20260507010110 | 13 | 250 | 0.0 | 0.0 | 0.03 | 0.10 | 0.10 | 96 | 1006.0 |
| 20260507004555 | 12 | 259 | 0.0 | 0.0 | 0.03 | 0.10 | 0.10 | 96 | 1005.9 |
| 20260507003010 | 12 | 206 | 0.0 | 0.0 | 0.05 | 0.10 | 0.10 | 96 | 1005.9 |
| 20260507001612 | 12 | 231 | 0.0 | 0.0 | 0.05 | 0.08 | 0.08 | 96 | 1006.0 |
| 20260507000016 | 12 | 219 | 0.0 | 0.0 | 0.08 | 0.08 | 0.08 | 96 | 1005.9 |
| 20260506234620 | 12 | 211 | 0.0 | 0.0 | 0.08 | 0.08 | 0.08 | 96 | 1005.9 |
| 20260506233043 | 12 | 212 | 0.0 | 0.0 | 0.05 | 0.05 | 0.05 | 95 | 1005.9 |
| 20260506231507 | 12 | 215 | 0.0 | 0.0 | 0.03 | 0.03 | 0.03 | 95 | 1005.9 |
| 20260506230108 | 12 | 234 | 0.0 | 0.0 | 0.00 | 0.00 | 0.00 | 95 | 1005.9 |
| 20260506224535 | 13 | 210 | 0.0 | 0.0 | 0.00 | 0.00 | 0.00 | 95 | 1005.8 |
| 20260506223128 | 13 | 213 | 0.0 | 0.0 | 0.00 | 0.00 | 0.00 | 95 | 1005.8 |
| 20260506221544 | 13 | 223 | 0.0 | 0.0 | 0.00 | 0.00 | 0.00 | 94 | 1006.1 |
| 20260506220012 | 13 | 222 | 0.0 | 0.0 | 0.00 | 0.00 | 0.00 | 93 | 1006.3 |
| 20260506214556 | 13 | 207 | 0.0 | 0.0 | 0.00 | 0.00 | 0.00 | 92 | 1006.3 |
| 20260506213018 | 13 | 221 | 0.0 | 0.0 | 0.00 | 0.00 | 0.00 | 92 | 1006.3 |
| 20260506211608 | 13 | 198 | 0.0 | 0.0 | 0.00 | 0.00 | 0.00 | 92 | 1006.5 |
| 20260506210023 | 14 | 201 | 0.0 | 0.0 | 0.00 | 0.00 | 0.00 | 92 | 1006.5 |
| 20260506204628 | 14 | 207 | 0.0 | 0.0 | 0.00 | 0.00 | 0.00 | 92 | 1006.6 |
| 20260506203049 | 14 | 217 | 0.0 | 0.0 | 0.00 | 0.00 | 0.00 | 91 | 1006.7 |
| 20260506201513 | 15 | 208 | 0.0 | 0.0 | 0.00 | 0.00 | 0.00 | 90 | 1006.8 |
| 20260506200114 | 15 | 195 | 0.0 | 0.0 | 0.00 | 0.00 | 0.00 | 89 | 1006.8 |
| 20260506194552 | 16 | 229 | 0.0 | 0.0 | 0.00 | 0.00 | 0.00 | 86 | 1006.9 |
| 20260506193006 | 16 | 243 | 0.0 | 0.0 | 0.00 | 0.00 | 0.00 | 84 | 1007.1 |
| 20260506191548 | 17 | 222 | 0.0 | 0.0 | 0.00 | 0.00 | 0.00 | 78 | 1007.1 |
| 20260506190007 | 17 | 221 | 0.0 | 0.0 | 0.00 | 0.00 | 0.00 | 77 | 1007.1 |
| 20260506184558 | 17 | 232 | 0.0 | 0.0 | 0.00 | 0.00 | 0.00 | 76 | 1006.9 |
| 20260506183020 | 18 | 191 | 0.0 | 0.0 | 0.00 | 0.00 | 0.00 | 74 | 1007.2 |
| 20260506181627 | 18 | 193 | 0.0 | 0.0 | 0.00 | 0.00 | 0.00 | 73 | 1007.2 |
| 20260506180021 | 18 | 257 | 0.0 | 0.0 | 0.00 | 0.00 | 0.00 | 72 | 1007.6 |
| 20260506174628 | 18 | 224 | 0.0 | 0.0 | 0.00 | 0.00 | 0.00 | 72 | 1007.7 |
| 20260506173121 | 18 | 216 | 0.0 | 0.0 | 0.00 | 0.00 | 0.00 | 72 | 1008.2 |
| 20260506171523 | 19 | 243 | 0.0 | 0.0 | 0.00 | 0.00 | 0.00 | 70 | 1008.0 |
| 20260506170111 | 19 | 229 | 0.0 | 0.0 | 0.00 | 0.00 | 0.00 | 71 | 1007.8 |
| 20260506164540 | 18 | 263 | 0.0 | 0.0 | 0.00 | 0.00 | 0.00 | 71 | 1008.3 |
| 20260506163012 | 18 | 219 | 0.0 | 0.0 | 0.00 | 0.00 | 0.00 | 72 | 1008.4 |
| 20260506161603 | 18 | 283 | 0.0 | 0.0 | 0.00 | 0.00 | 0.00 | 71 | 1008.6 |
| 20260506160033 | 18 | 172 | 0.0 | 0.0 | 0.00 | 0.00 | 0.00 | 71 | 1008.7 |
| 20260506154626 | 18 | 319 | 0.0 | 0.0 | 0.00 | 0.00 | 0.00 | 71 | 1008.9 |
| 20260506153052 | 18 | 209 | 0.0 | 0.0 | 0.00 | 0.00 | 0.00 | 73 | 1009.2 |
| 20260506151508 | 18 | 205 | 0.0 | 0.0 | 0.00 | 0.00 | 0.00 | 73 | 1009.2 |
| 20260506150106 | 18 | 196 | 0.0 | 0.0 | 0.00 | 0.00 | 0.00 | 74 | 1009.2 |
| 20260506144537 | 18 | 209 | 0.0 | 0.0 | 0.00 | 0.00 | 0.00 | 74 | 1009.2 |
| 20260506143002 | 18 | 211 | 0.0 | 0.0 | 0.00 | 0.00 | 0.00 | 73 | 1009.0 |
| 20260506141551 | 18 | 289 | 0.0 | 0.0 | 0.00 | 0.00 | 0.00 | 74 | 1009.2 |
| 20260506140005 | 17 | 231 | 0.0 | 0.0 | 0.00 | 0.00 | 0.00 | 75 | 1009.1 |
| 20260506134603 | 17 | 213 | 0.0 | 0.0 | 0.00 | 0.00 | 0.00 | 76 | 1009.3 |
| 20260506133021 | 16 | 205 | 0.0 | 0.0 | 0.00 | 0.00 | 0.00 | 80 | 1009.7 |
| 20260506131604 | 16 | 221 | 0.0 | 0.0 | 0.00 | 0.00 | 0.00 | 81 | 1009.8 |
| 20260506130036 | 15 | 193 | 0.0 | 0.0 | 0.00 | 0.00 | 0.00 | 83 | 1009.9 |
| 20260506124513 | 15 | 227 | 0.0 | 0.0 | 0.00 | 0.00 | 0.00 | 84 | 1009.9 |
| 20260506123057 | 15 | 204 | 0.0 | 0.0 | 0.00 | 0.00 | 0.00 | 85 | 1009.8 |
| 20260506121512 | 15 | 221 | 0.0 | 0.0 | 0.00 | 0.00 | 0.00 | 87 | 1009.8 |
| 20260506120106 | 14 | 261 | 0.0 | 0.0 | 0.00 | 0.00 | 0.00 | 87 | 1010.1 |
| 20260506114537 | 14 | 204 | 0.0 | 0.0 | 0.00 | 0.00 | 0.00 | 88 | 1010.2 |
| 20260506113128 | 13 | 200 | 0.0 | 0.0 | 0.00 | 0.00 | 0.00 | 89 | 1010.3 |
| 20260506111555 | 13 | 229 | 0.0 | 0.0 | 0.00 | 0.00 | 0.00 | 90 | 1010.2 |
| 20260506110019 | 13 | 225 | 0.0 | 0.0 | 0.00 | 0.00 | 0.00 | 91 | 1010.2 |
| 20260506104622 | 13 | 210 | 0.0 | 0.0 | 0.00 | 0.00 | 0.00 | 91 | 1010.2 |
| 20260506103043 | 13 | 184 | 0.0 | 0.0 | 0.00 | 0.00 | 0.00 | 91 | 1010.1 |
| 20260506101506 | 13 | 240 | 0.0 | 0.0 | 0.00 | 0.00 | 0.00 | 90 | 1010.2 |
| 20260506100105 | 13 | 229 | 0.0 | 0.0 | 0.00 | 0.00 | 0.00 | 90 | 1010.0 |
| 20260506094559 | 13 | 202 | 0.0 | 0.0 | 0.00 | 0.00 | 0.00 | 89 | 1009.8 |
| 20260506093128 | 13 | 225 | 0.0 | 0.0 | 0.00 | 0.00 | 0.00 | 89 | 1010.0 |
| 20260506091550 | 13 | 211 | 0.0 | 0.0 | 0.00 | 0.00 | 0.00 | 88 | 1009.9 |
| 20260506090012 | 13 | 213 | 0.0 | 0.0 | 0.00 | 0.00 | 0.00 | 88 | 1010.0 |
| 20260506084633 | 13 | 248 | 0.0 | 0.0 | 0.00 | 0.00 | 0.00 | 88 | 1010.1 |
| 20260506083053 | 13 | 223 | 0.0 | 0.0 | 0.00 | 0.00 | 0.00 | 87 | 1010.1 |
| 20260506081517 | 13 | 222 | 0.0 | 0.0 | 0.00 | 0.00 | 0.00 | 87 | 1010.2 |
| 20260506080109 | 14 | 209 | 0.0 | 0.0 | 0.00 | 0.00 | 0.00 | 86 | 1010.2 |
| 20260506073015 | 14 | 205 | 0.0 | 0.0 | 0.00 | 0.00 | 0.00 | 85 | 1010.1 |
| 20260506071602 | 14 | 216 | 0.0 | 0.0 | 0.00 | 0.00 | 0.00 | 84 | 1009.9 |
| 20260506060130 | 14 | 215 | 0.0 | 0.0 | 0.00 | 0.00 | 0.00 | 82 | 1010.0 |
| 20260506044503 | 14 | 221 | 0.0 | 0.0 | 0.00 | 0.00 | 0.00 | 80 | 1010.5 |
| 20260506043056 | 14 | 228 | 0.0 | 0.0 | 0.00 | 0.00 | 0.00 | 79 | 1010.5 |
| 20260506041514 | 15 | 219 | 0.0 | 0.0 | 0.00 | 0.00 | 0.00 | 78 | 1010.4 |
| 20260506040106 | 14 | 231 | 0.0 | 0.0 | 0.00 | 0.00 | 0.00 | 78 | 1010.4 |
| 20260506034537 | 14 | 221 | 0.0 | 0.0 | 0.00 | 0.00 | 0.00 | 78 | 1010.4 |
| 20260506033004 | 14 | 221 | 0.0 | 0.0 | 0.00 | 0.00 | 0.00 | 77 | 1010.4 |
| 20260506031559 | 14 | 223 | 0.0 | 0.0 | 0.00 | 0.00 | 0.00 | 76 | 1010.3 |